Weather History for Fes-Sais, Morocco

Change the Weather History Date:

Thursday, September 26, 2013

  Actual Average Record
Temperature  
Mean Temperature 72 °F -  
Max Temperature 84 °F 77 °F 89 °F (2003)
Min Temperature 59 °F 54 °F 48 °F (1996)
Cooling Degree Days 6    
Growing Degree Days 22 (Base 50)    
Moisture  
Dew Point 59 °F    
Average Humidity 63    
Maximum Humidity 94    
Minimum Humidity 36    
Precipitation  
Precipitation 0.00 in 0.07 in - ()
Sea Level Pressure  
Sea Level Pressure 29.98 in    
Wind  
Wind Speed 4 mph ()    
Max Wind Speed 9 mph    
Max Gust Speed -    
Visibility 5.6 miles    
Events      
Averages and records for this station are not official NWS values.
T = Trace of Precipitation, MM = Missing Value Source: Averaged Metar Reports

Daily Weather History Graph

Daily Weather History Graph

Search for Another Location

Airport:

Trip Planner

Search our weather history database for the weather conditions in past years. The results will help you decide how hot, cold, wet, or windy it might be!

Date:

Astronomy

Sep. 26, 2013 Rise Set
Actual Time 7:10 AM WEST 7:11 PM WEST
Civil Twilight 6:45 AM WEST 7:35 PM WEST
Nautical Twilight 6:16 AM WEST 8:04 PM WEST
Astronomical Twilight 5:47 AM WEST 8:34 PM WEST
Moon No Moon Rise 1:38 PM WEST (9/26)
Length of Visible Light 12h 50m
Length of Day
12h 00m
Waning Gibbous, 57% of the Moon is Illuminated
Sep 26
Waning Gibbous
Sep 27
Last Quarter
Oct 5
New
Oct 12
First Quarter
Oct 19
Full

Hourly Weather History & Observations

Time (WEST) Temp. Heat Index Dew Point Humidity Pressure Visibility Wind Dir Wind Speed Gust Speed Precip Events Conditions
12:00 AM 68.0 °F - 59.0 °F 73% 30.01 in 6.2 mi South 4.6 mph - N/A   Partly Cloudy
1:00 AM 67 °F - 59 °F 69% 29.96 in 6 mi WSW 3.5 mph - -   Partly Cloudy
1:00 AM 68.0 °F - 59.0 °F 73% 30.01 in 6.2 mi WSW 3.5 mph - N/A   Scattered Clouds
2:00 AM 64.4 °F - 59.0 °F 83% 30.01 in 6.2 mi Calm Calm - N/A   Partly Cloudy
3:00 AM 64.4 °F - 59.0 °F 83% 29.98 in 6.2 mi Calm Calm - N/A   Scattered Clouds
4:00 AM 60.8 °F - 57.2 °F 88% 29.98 in 6.2 mi South 4.6 mph - N/A   Partly Cloudy
5:00 AM 60.8 °F - 57.2 °F 88% 29.95 in 6.2 mi SSE 4.6 mph - N/A   Scattered Clouds
6:00 AM 60.8 °F - 57.2 °F 88% 29.98 in 6.2 mi South 4.6 mph - N/A   Partly Cloudy
7:00 AM 60 °F - 56 °F 84% 29.95 in 6 mi SSE 3.5 mph - -  
7:00 AM 59.0 °F - 57.2 °F 94% 29.98 in - SSE 3.5 mph - N/A   Clear
8:00 AM 60.8 °F - 57.2 °F 88% 29.98 in - South 3.5 mph - N/A   Clear
9:00 AM 68.0 °F - 59.0 °F 73% 30.01 in - WSW 2.3 mph - N/A   Clear
10:00 AM 72 °F - 59 °F 55% 29.94 in 6 mi NW 2.3 mph - -  
10:00 AM 71.6 °F - 59.0 °F 64% 30.01 in - NW 2.3 mph - N/A   Clear
11:00 AM 75.2 °F - 59.0 °F 57% 30.01 in - NNW 2.3 mph - N/A   Clear
12:00 PM 78.8 °F - 60.8 °F 54% 30.01 in 5.0 mi NNW 4.6 mph - N/A   Unknown
1:00 PM 80 °F - 61 °F 42% 29.88 in 6 mi WNW 4.6 mph - -   Clear
1:00 PM 80.6 °F 81.5 °F 60.8 °F 51% 29.98 in 5.0 mi WNW 4.6 mph - N/A   Unknown
2:00 PM 82.4 °F 82.9 °F 60.8 °F 48% 29.98 in 5.0 mi NW 4.6 mph - N/A   Scattered Clouds
2:30 PM 84.2 °F 85.0 °F 62.6 °F 48% 29.98 in 5.0 mi Variable 5.8 mph - N/A   Partly Cloudy
3:00 PM 84.2 °F 84.4 °F 60.8 °F 45% 29.98 in 5.0 mi NW 8.1 mph - N/A   Scattered Clouds
4:00 PM 81 °F - 58 °F 36% 29.86 in 5 mi NW 9.2 mph - -   Scattered Clouds
4:00 PM 82.4 °F 82.5 °F 59.0 °F 45% 29.98 in 5.0 mi NW 9.2 mph - N/A   Scattered Clouds
5:00 PM 80.6 °F 81.5 °F 60.8 °F 51% 29.98 in 5.0 mi West 6.9 mph - N/A   Mostly Cloudy
6:00 PM 77.0 °F - 59.0 °F 54% 29.98 in 5.0 mi WNW 5.8 mph - N/A   Mostly Cloudy
7:00 PM 77 °F - 58 °F 41% 29.91 in 5 mi WNW 4.6 mph - -   Scattered Clouds
7:00 PM 77.0 °F - 57.2 °F 50% 30.01 in 5.0 mi WNW 4.6 mph - N/A   Mostly Cloudy
8:00 PM 73.4 °F - 59.0 °F 61% 30.01 in 5.0 mi West 2.3 mph - N/A   Mostly Cloudy
9:00 PM 71.6 °F - 57.2 °F 60% 30.04 in - Calm Calm - N/A   Clear
10:00 PM 69 °F - 55 °F 51% 29.99 in 6 mi West 4.6 mph - -   Clear
10:00 PM 69.8 °F - 55.4 °F 60% 30.06 in - West 4.6 mph - N/A   Clear
11:00 PM 68.0 °F - 55.4 °F 64% 30.06 in - SSW 4.6 mph - N/A   Clear